2017-008CX

Last updated on Fri Mar 03 2017 00:15:03 GMT+0000 (Greenwich Mean Time)

1 42041U 17008CX 17061.84915527 .00005810 00000-0 25496-3 0 9996 2 42041 97.5063 123.4606 0006685 225.5153 134.5054 15.22330749 2362
UTC large
Height (km)
Speed (km/s)
/
Latitude / Longitude
Inclination (degrees)
Orbital Period (minutes)
Azimuth
Elevation
Range (km)
Doppler Factor

Next 0 passes for location: London (51.5072 / 0.1276)

Sorry there are no passes over London.